Dati Storici

Data ora Umidita' aria (%) Temperatura aria (°C) Rad globale (W/m²) Gonioanemometro (°) Tacoanemometro (m/s) Pioggia (mm)
25-06-2020 18:10 54.4 % 25.168 56.017 1.717 0 0
25-06-2020 18:00 54.2 % 25.372 14.818 2.338 0 0
25-06-2020 17:50 54.1 % 25.774 29.874 1.694 0 0
25-06-2020 17:40 56.4 % 25.702 114.441 0.434 0 0
25-06-2020 17:30 54.5 % 26.207 93.056 0.468 0 0
25-06-2020 17:20 55.8 % 25.793 97.243 2.32 0 0
25-06-2020 17:10 54.2 % 25.456 65.265 1.447 0 0
25-06-2020 17:00 54.3 % 26.323 72.712 1.983 0 0
25-06-2020 16:50 54.8 % 26.303 104.588 0.891 0 0
25-06-2020 16:40 54.8 % 26.175 -67.226 1.508 0 0
25-06-2020 16:30 54.2 % 26.316 -62.728 3.175 0 0
25-06-2020 16:20 53.8 % 25.88 -55.456 2.969 0 0
25-06-2020 16:10 53.4 % 26.53 -65.048 2.46 0 0
25-06-2020 16:00 56.1 % 26.482 -57.176 1.759 0 0
25-06-2020 15:50 57.3 % 25.117 -63.356 2.972 0 0
25-06-2020 15:40 57.5 % 25.396 -54.595 1.162 0 0
25-06-2020 15:30 57.6 % 25.716 -67.987 -0.033 0 0
25-06-2020 15:20 58.4 % 25.491 -61.884 2.334 0 0
25-06-2020 15:10 59.5 % 26.27 -64.541 1.786 0 0
25-06-2020 15:00 61 % 25.628 -62.071 2.381 0 0

I dati sono presentati in modo automatico a scopo informativo. In seguito a verifica i dati possono subire modifiche o essere invalidati e non riportati negli archivi definitivi.